Time,TemperatureF,DewpointF,PressureIn,WindDirection,WindDirectionDegrees,WindSpeedMPH,WindSpeedGustMPH,Humidity,HourlyPrecipIn,Conditions,Clouds,dailyrainin,SoftwareType,DateUTC
2013-04-12 00:00:00,70.6,66.6,29.74,SSE,168,4.0,9.0,87,0.00,,---,0.00,VWS V14.00,2013-04-12 04:00:00,
2013-04-12 00:05:00,70.6,66.6,29.74,SSW,197,2.0,9.0,87,0.00,,---,0.00,VWS V14.00,2013-04-12 04:05:00,
2013-04-12 00:10:00,70.5,66.8,29.74,SSE,156,4.0,9.0,88,0.00,,---,0.00,VWS V14.00,2013-04-12 04:10:00,
2013-04-12 00:15:00,70.5,66.8,29.74,SSW,205,3.0,9.0,88,0.00,,---,0.00,VWS V14.00,2013-04-12 04:15:00,
2013-04-12 00:20:00,70.5,66.8,29.75,SW,225,3.0,10.0,88,0.00,,---,0.00,VWS V14.00,2013-04-12 04:20:00,
2013-04-12 00:25:00,70.5,66.8,29.75,SSW,197,6.0,10.0,88,0.01,,---,0.01,VWS V14.00,2013-04-12 04:25:00,
2013-04-12 00:30:00,70.3,66.9,29.75,South,188,1.0,12.0,89,0.01,,---,0.01,VWS V14.00,2013-04-12 04:30:00,
2013-04-12 00:35:00,70.1,66.7,29.74,SW,221,4.0,12.0,89,0.01,,---,0.01,VWS V14.00,2013-04-12 04:35:00,
2013-04-12 00:40:00,69.9,66.8,29.74,West,260,0.0,12.0,90,0.01,,---,0.01,VWS V14.00,2013-04-12 04:40:00,
2013-04-12 00:45:00,69.8,66.7,29.74,SSW,208,2.0,12.0,90,0.01,,---,0.01,VWS V14.00,2013-04-12 04:45:00,
2013-04-12 00:50:00,69.7,66.6,29.74,SSW,209,2.0,12.0,90,0.01,,---,0.01,VWS V14.00,2013-04-12 04:50:00,
2013-04-12 00:55:00,69.6,66.9,29.74,SSW,205,3.0,12.0,91,0.01,,---,0.01,VWS V14.00,2013-04-12 04:55:00,
2013-04-12 01:00:00,69.6,66.9,29.75,SW,221,4.0,8.0,91,0.01,,---,0.01,VWS V14.00,2013-04-12 05:00:00,
2013-04-12 01:05:00,69.6,66.9,29.74,SSW,196,0.0,8.0,91,0.01,,---,0.01,VWS V14.00,2013-04-12 05:05:00,
2013-04-12 01:10:00,69.6,66.9,29.75,South,186,0.0,0.0,91,0.00,,---,0.01,VWS V14.00,2013-04-12 05:10:00,
2013-04-12 01:15:00,69.6,66.9,29.74,SSW,207,2.0,5.0,91,0.01,,---,0.01,VWS V14.00,2013-04-12 05:15:00,
2013-04-12 01:20:00,69.6,66.9,29.73,SSE,158,5.0,6.0,91,0.01,,---,0.01,VWS V14.00,2013-04-12 05:20:00,
2013-04-12 01:25:00,69.6,66.9,29.73,SSW,198,3.0,9.0,91,0.01,,---,0.01,VWS V14.00,2013-04-12 05:25:00,
2013-04-12 01:30:00,69.6,66.9,29.73,SSW,193,2.0,6.0,91,0.00,,---,0.01,VWS V14.00,2013-04-12 05:30:00,
2013-04-12 01:35:00,69.6,66.9,29.73,South,189,4.0,7.0,91,0.00,,---,0.01,VWS V14.00,2013-04-12 05:35:00,
2013-04-12 01:40:00,69.6,66.9,29.72,SW,214,1.0,7.0,91,0.00,,---,0.01,VWS V14.00,2013-04-12 05:40:00,
2013-04-12 01:45:00,69.6,66.9,29.72,SSW,194,2.0,7.0,91,0.00,,---,0.01,VWS V14.00,2013-04-12 05:45:00,
2013-04-12 01:50:00,69.6,66.9,29.71,SW,223,0.0,9.0,91,0.00,,---,0.01,VWS V14.00,2013-04-12 05:50:00,
2013-04-12 01:55:00,69.6,66.9,29.71,SW,219,0.0,9.0,91,0.00,,---,0.01,VWS V14.00,2013-04-12 05:55:00,
2013-04-12 02:00:00,69.5,66.8,29.72,SSW,194,4.0,6.0,91,0.00,,---,0.01,VWS V14.00,2013-04-12 06:00:00,
2013-04-12 02:05:00,69.5,66.8,29.72,SSW,203,3.0,6.0,91,0.00,,---,0.01,VWS V14.00,2013-04-12 06:05:00,
2013-04-12 02:10:00,69.6,66.9,29.72,WSW,237,1.0,6.0,91,0.00,,---,0.01,VWS V14.00,2013-04-12 06:10:00,
2013-04-12 02:15:00,69.6,66.9,29.72,SSW,204,2.0,6.0,91,0.00,,---,0.01,VWS V14.00,2013-04-12 06:15:00,
2013-04-12 02:20:00,69.6,66.9,29.71,South,186,0.0,6.0,91,0.00,,---,0.01,VWS V14.00,2013-04-12 06:20:00,
2013-04-12 02:25:00,69.7,67.0,29.70,SSW,199,0.0,9.0,91,0.00,,---,0.01,VWS V14.00,2013-04-12 06:25:00,
2013-04-12 02:30:00,69.7,67.0,29.69,SSW,206,2.0,5.0,91,0.00,,---,0.01,VWS V14.00,2013-04-12 06:30:00,
2013-04-12 02:35:00,69.7,67.0,29.70,WSW,248,0.0,5.0,91,0.00,,---,0.01,VWS V14.00,2013-04-12 06:35:00,
2013-04-12 02:40:00,69.8,67.1,29.70,SSW,210,2.0,5.0,91,0.00,,---,0.01,VWS V14.00,2013-04-12 06:40:00,
2013-04-12 02:45:00,69.8,67.1,29.71,SW,217,3.0,5.0,91,0.00,,---,0.01,VWS V14.00,2013-04-12 06:45:00,
2013-04-12 02:50:00,69.8,67.1,29.70,SW,215,1.0,5.0,91,0.01,,---,0.02,VWS V14.00,2013-04-12 06:50:00,
2013-04-12 02:55:00,69.8,67.1,29.71,SW,230,0.0,5.0,91,0.01,,---,0.02,VWS V14.00,2013-04-12 06:55:00,
2013-04-12 03:00:00,69.7,67.3,29.70,SW,222,2.0,3.0,92,0.03,,---,0.04,VWS V14.00,2013-04-12 07:00:00,
2013-04-12 03:05:00,69.7,67.3,29.68,SSW,204,0.0,7.0,92,0.05,,---,0.06,VWS V14.00,2013-04-12 07:05:00,
2013-04-12 03:10:00,69.5,67.1,29.67,SSW,204,1.0,7.0,92,0.05,,---,0.06,VWS V14.00,2013-04-12 07:10:00,
2013-04-12 03:15:00,69.4,67.3,29.67,South,189,0.0,7.0,93,0.05,,---,0.06,VWS V14.00,2013-04-12 07:15:00,
2013-04-12 03:20:00,69.3,67.2,29.68,SSW,206,0.0,7.0,93,0.05,,---,0.06,VWS V14.00,2013-04-12 07:20:00,
2013-04-12 03:25:00,69.2,67.1,29.69,SSW,199,2.0,7.0,93,0.05,,---,0.06,VWS V14.00,2013-04-12 07:25:00,
2013-04-12 03:30:00,69.2,67.1,29.69,SW,217,0.0,5.0,93,0.05,,---,0.06,VWS V14.00,2013-04-12 07:30:00,
2013-04-12 03:35:00,69.1,67.0,29.69,SSW,213,1.0,6.0,93,0.05,,---,0.06,VWS V14.00,2013-04-12 07:35:00,
2013-04-12 03:40:00,69.1,67.0,29.69,SSW,205,3.0,6.0,93,0.05,,---,0.06,VWS V14.00,2013-04-12 07:40:00,
2013-04-12 03:45:00,69.1,67.0,29.68,SSW,211,3.0,6.0,93,0.05,,---,0.06,VWS V14.00,2013-04-12 07:45:00,
2013-04-12 03:50:00,69.0,66.9,29.68,West,281,2.0,6.0,93,0.05,,---,0.06,VWS V14.00,2013-04-12 07:50:00,
2013-04-12 03:55:00,69.0,66.9,29.68,WSW,250,1.0,6.0,93,0.05,,---,0.06,VWS V14.00,2013-04-12 07:55:00,
2013-04-12 04:00:00,68.9,66.8,29.68,WSW,244,2.0,3.0,93,0.03,,---,0.06,VWS V14.00,2013-04-12 08:00:00,
2013-04-12 04:05:00,68.9,66.8,29.68,WSW,238,1.0,4.0,93,0.03,,---,0.06,VWS V14.00,2013-04-12 08:05:00,
2013-04-12 04:10:00,68.9,66.8,29.68,South,172,0.0,6.0,93,0.03,,---,0.06,VWS V14.00,2013-04-12 08:10:00,
2013-04-12 04:15:00,68.9,66.8,29.68,South,172,0.0,6.0,93,0.03,,---,0.06,VWS V14.00,2013-04-12 08:15:00,
2013-04-12 04:20:00,68.9,67.1,29.69,South,182,0.0,6.0,94,0.03,,---,0.06,VWS V14.00,2013-04-12 08:20:00,
2013-04-12 04:25:00,68.9,66.8,29.68,South,182,0.0,6.0,93,0.03,,---,0.06,VWS V14.00,2013-04-12 08:25:00,
2013-04-12 04:30:00,68.9,67.1,29.68,South,182,0.0,2.0,94,0.00,,---,0.06,VWS V14.00,2013-04-12 08:30:00,
2013-04-12 04:35:00,68.8,66.7,29.68,SW,226,3.0,5.0,93,0.00,,---,0.06,VWS V14.00,2013-04-12 08:35:00,
2013-04-12 04:40:00,69.0,66.9,29.68,WSW,238,3.0,5.0,93,0.00,,---,0.06,VWS V14.00,2013-04-12 08:40:00,
2013-04-12 04:45:00,69.0,66.9,29.68,SW,222,2.0,5.0,93,0.00,,---,0.06,VWS V14.00,2013-04-12 08:45:00,
2013-04-12 04:50:00,69.1,66.7,29.68,SW,219,1.0,5.0,92,0.00,,---,0.06,VWS V14.00,2013-04-12 08:50:00,
2013-04-12 04:55:00,69.1,66.7,29.68,SW,229,4.0,5.0,92,0.00,,---,0.06,VWS V14.00,2013-04-12 08:55:00,
2013-04-12 05:00:00,69.0,66.6,29.68,SW,233,4.0,8.0,92,0.00,,---,0.06,VWS V14.00,2013-04-12 09:00:00,
2013-04-12 05:05:00,69.2,66.8,29.69,SW,214,4.0,8.0,92,0.00,,---,0.06,VWS V14.00,2013-04-12 09:05:00,
2013-04-12 05:10:00,69.2,66.5,29.69,WSW,237,5.0,9.0,91,0.00,,---,0.06,VWS V14.00,2013-04-12 09:10:00,
2013-04-12 05:15:00,69.3,66.6,29.68,SSW,192,6.0,9.0,91,0.00,,---,0.06,VWS V14.00,2013-04-12 09:15:00,
2013-04-12 05:20:00,69.4,66.3,29.68,WSW,240,2.0,9.0,90,0.00,,---,0.06,VWS V14.00,2013-04-12 09:20:00,
2013-04-12 05:25:00,69.5,66.4,29.68,SW,221,4.0,9.0,90,0.00,,---,0.06,VWS V14.00,2013-04-12 09:25:00,
2013-04-12 05:30:00,69.5,66.4,29.67,SW,225,4.0,8.0,90,0.00,,---,0.06,VWS V14.00,2013-04-12 09:30:00,
2013-04-12 05:35:00,69.5,66.4,29.67,SW,236,4.0,10.0,90,0.00,,---,0.06,VWS V14.00,2013-04-12 09:35:00,
2013-04-12 05:40:00,69.5,66.4,29.67,WSW,240,2.0,10.0,90,0.00,,---,0.06,VWS V14.00,2013-04-12 09:40:00,
2013-04-12 05:45:00,69.5,66.4,29.67,WSW,242,4.0,10.0,90,0.00,,---,0.06,VWS V14.00,2013-04-12 09:45:00,
2013-04-12 05:50:00,69.5,66.4,29.67,SW,232,0.0,10.0,90,0.00,,---,0.06,VWS V14.00,2013-04-12 09:50:00,
2013-04-12 05:55:00,69.5,66.4,29.67,NNW,340,5.0,10.0,90,0.00,,---,0.06,VWS V14.00,2013-04-12 09:55:00,
2013-04-12 06:00:00,69.6,66.5,29.67,WSW,247,1.0,11.0,90,0.00,,---,0.06,VWS V14.00,2013-04-12 10:00:00,
2013-04-12 06:05:00,69.6,66.5,29.67,SW,229,2.0,11.0,90,0.00,,---,0.06,VWS V14.00,2013-04-12 10:05:00,
2013-04-12 06:10:00,69.6,66.5,29.68,West,261,6.0,11.0,90,0.00,,---,0.06,VWS V14.00,2013-04-12 10:10:00,
2013-04-12 06:15:00,69.7,66.6,29.68,SW,236,1.0,12.0,90,0.00,,---,0.06,VWS V14.00,2013-04-12 10:15:00,
2013-04-12 06:20:00,69.9,66.8,29.68,WSW,248,4.0,12.0,90,0.00,,---,0.06,VWS V14.00,2013-04-12 10:20:00,
2013-04-12 06:25:00,69.9,66.5,29.68,WSW,240,4.0,12.0,89,0.00,,---,0.06,VWS V14.00,2013-04-12 10:25:00,
2013-04-12 06:30:00,70.0,66.6,29.68,SW,234,4.0,10.0,89,0.00,,---,0.06,VWS V14.00,2013-04-12 10:30:00,
2013-04-12 06:35:00,70.0,66.6,29.69,WSW,244,8.0,10.0,89,0.00,,---,0.06,VWS V14.00,2013-04-12 10:35:00,
2013-04-12 06:40:00,70.0,66.6,29.68,West,263,4.0,14.0,89,0.00,,---,0.06,VWS V14.00,2013-04-12 10:40:00,
2013-04-12 06:45:00,70.0,66.3,29.68,SW,236,3.0,14.0,88,0.00,,---,0.06,VWS V14.00,2013-04-12 10:45:00,
2013-04-12 06:50:00,69.9,66.2,29.68,West,266,5.0,14.0,88,0.00,,---,0.06,VWS V14.00,2013-04-12 10:50:00,
2013-04-12 06:55:00,69.9,66.2,29.68,WSW,255,1.0,14.0,88,0.00,,---,0.06,VWS V14.00,2013-04-12 10:55:00,
2013-04-12 07:00:00,69.9,66.2,29.68,WSW,247,3.0,6.0,88,0.00,,---,0.06,VWS V14.00,2013-04-12 11:00:00,
2013-04-12 07:05:00,69.8,66.4,29.69,West,261,2.0,7.0,89,0.00,,---,0.06,VWS V14.00,2013-04-12 11:05:00,
2013-04-12 07:10:00,69.8,66.4,29.69,West,265,6.0,7.0,89,0.00,,---,0.06,VWS V14.00,2013-04-12 11:10:00,
2013-04-12 07:15:00,69.9,66.5,29.69,WSW,254,6.0,8.0,89,0.00,,---,0.06,VWS V14.00,2013-04-12 11:15:00,
2013-04-12 07:20:00,69.9,66.2,29.69,WSW,238,2.0,10.0,88,0.00,,---,0.06,VWS V14.00,2013-04-12 11:20:00,
2013-04-12 07:25:00,70.1,66.4,29.69,West,259,1.0,11.0,88,0.00,,---,0.06,VWS V14.00,2013-04-12 11:25:00,
2013-04-12 07:30:00,70.1,66.4,29.69,SW,236,4.0,11.0,88,0.00,,---,0.06,VWS V14.00,2013-04-12 11:30:00,
2013-04-12 07:35:00,70.2,66.5,29.68,WSW,250,0.0,11.0,88,0.00,,---,0.06,VWS V14.00,2013-04-12 11:35:00,
2013-04-12 07:40:00,70.2,66.5,29.68,SW,220,2.0,17.0,88,0.00,,---,0.06,VWS V14.00,2013-04-12 11:40:00,
2013-04-12 07:45:00,70.2,66.2,29.68,SW,234,5.0,17.0,87,0.00,,---,0.06,VWS V14.00,2013-04-12 11:45:00,
2013-04-12 07:50:00,70.3,66.6,29.68,WSW,249,3.0,17.0,88,0.00,,---,0.06,VWS V14.00,2013-04-12 11:50:00,
2013-04-12 07:55:00,70.3,66.6,29.68,WSW,240,3.0,17.0,88,0.00,,---,0.06,VWS V14.00,2013-04-12 11:55:00,
2013-04-12 08:00:00,70.3,66.6,29.69,WSW,254,3.0,12.0,88,0.00,,---,0.06,VWS V14.00,2013-04-12 12:00:00,
2013-04-12 08:05:00,70.4,66.7,29.68,SW,234,5.0,12.0,88,0.00,,---,0.06,VWS V14.00,2013-04-12 12:05:00,
2013-04-12 08:10:00,70.4,66.7,29.69,WSW,243,3.0,12.0,88,0.00,,---,0.06,VWS V14.00,2013-04-12 12:10:00,
2013-04-12 08:15:00,70.6,66.6,29.69,WSW,246,1.0,12.0,87,0.00,,---,0.06,VWS V14.00,2013-04-12 12:15:00,
2013-04-12 08:20:00,70.7,66.7,29.70,WSW,244,2.0,12.0,87,0.00,,---,0.06,VWS V14.00,2013-04-12 12:20:00,
2013-04-12 08:25:00,70.9,66.8,29.69,WNW,290,1.0,12.0,87,0.00,,---,0.06,VWS V14.00,2013-04-12 12:25:00,
2013-04-12 08:30:00,71.0,66.9,29.70,SW,233,4.0,8.0,87,0.00,,---,0.06,VWS V14.00,2013-04-12 12:30:00,
2013-04-12 08:35:00,71.1,67.0,29.70,SW,220,5.0,12.0,87,0.00,,---,0.06,VWS V14.00,2013-04-12 12:35:00,
2013-04-12 08:40:00,71.1,67.0,29.70,SW,234,0.0,12.0,87,0.00,,---,0.06,VWS V14.00,2013-04-12 12:40:00,
2013-04-12 08:45:00,71.1,67.0,29.71,WSW,258,5.0,12.0,87,0.00,,---,0.06,VWS V14.00,2013-04-12 12:45:00,
2013-04-12 08:50:00,71.3,67.2,29.71,SW,236,5.0,12.0,87,0.00,,---,0.06,VWS V14.00,2013-04-12 12:50:00,
2013-04-12 08:55:00,71.4,67.0,29.71,WSW,242,5.0,12.0,86,0.00,,---,0.06,VWS V14.00,2013-04-12 12:55:00,
2013-04-12 09:00:00,71.5,67.1,29.71,West,265,3.0,7.0,86,0.00,,---,0.06,VWS V14.00,2013-04-12 13:00:00,
2013-04-12 09:05:00,71.6,67.2,29.71,SW,214,3.0,7.0,86,0.00,,---,0.06,VWS V14.00,2013-04-12 13:05:00,
2013-04-12 09:10:00,71.7,67.3,29.71,WSW,251,1.0,8.0,86,0.00,,---,0.06,VWS V14.00,2013-04-12 13:10:00,
2013-04-12 09:15:00,71.8,67.4,29.71,West,261,1.0,8.0,86,0.00,,---,0.06,VWS V14.00,2013-04-12 13:15:00,
2013-04-12 09:20:00,72.1,67.7,29.71,SW,236,4.0,8.0,86,0.00,,---,0.06,VWS V14.00,2013-04-12 13:20:00,
2013-04-12 09:25:00,72.6,67.5,29.71,WSW,249,6.0,13.0,84,0.00,,---,0.06,VWS V14.00,2013-04-12 13:25:00,
2013-04-12 09:30:00,73.0,67.5,29.71,SW,230,5.0,14.0,83,0.00,,---,0.06,VWS V14.00,2013-04-12 13:30:00,
2013-04-12 09:35:00,73.2,67.7,29.71,WSW,240,3.0,16.0,83,0.00,,---,0.06,VWS V14.00,2013-04-12 13:35:00,
2013-04-12 09:40:00,73.2,67.7,29.71,SSW,198,3.0,3.0,83,0.00,,---,0.06,VWS V14.00,2013-04-12 13:40:00,
2013-04-12 09:45:00,73.1,67.6,29.71,SW,218,5.0,11.0,83,0.00,,---,0.06,VWS V14.00,2013-04-12 13:45:00,
2013-04-12 09:50:00,72.9,67.4,29.71,WSW,238,1.0,11.0,83,0.00,,---,0.06,VWS V14.00,2013-04-12 13:50:00,
2013-04-12 09:55:00,72.8,67.7,29.71,WSW,252,0.0,11.0,84,0.00,,---,0.06,VWS V14.00,2013-04-12 13:55:00,
2013-04-12 10:00:00,72.7,67.6,29.71,West,267,2.0,14.0,84,0.00,,---,0.06,VWS V14.00,2013-04-12 14:00:00,
2013-04-12 10:05:00,71.9,67.2,29.72,WNW,300,0.0,14.0,85,0.02,,---,0.08,VWS V14.00,2013-04-12 14:05:00,
2013-04-12 10:10:00,70.8,65.7,29.72,West,271,2.0,14.0,84,0.03,,---,0.09,VWS V14.00,2013-04-12 14:10:00,
2013-04-12 10:15:00,69.7,65.3,29.72,West,259,1.0,14.0,86,0.05,,---,0.11,VWS V14.00,2013-04-12 14:15:00,
2013-04-12 10:20:00,69.1,65.7,29.72,WNW,295,0.0,14.0,89,0.07,,---,0.13,VWS V14.00,2013-04-12 14:20:00,
2013-04-12 10:25:00,68.8,65.8,29.72,NW,306,1.0,14.0,90,0.07,,---,0.13,VWS V14.00,2013-04-12 14:25:00,
2013-04-12 10:30:00,68.8,66.1,29.72,NW,316,5.0,6.0,91,0.07,,---,0.13,VWS V14.00,2013-04-12 14:30:00,
2013-04-12 10:35:00,68.7,66.0,29.72,WNW,284,2.0,6.0,91,0.07,,---,0.13,VWS V14.00,2013-04-12 14:35:00,
2013-04-12 10:40:00,68.6,65.9,29.73,NW,315,1.0,6.0,91,0.07,,---,0.13,VWS V14.00,2013-04-12 14:40:00,
2013-04-12 10:45:00,68.5,66.1,29.73,West,267,3.0,6.0,92,0.07,,---,0.13,VWS V14.00,2013-04-12 14:45:00,
2013-04-12 10:50:00,68.4,66.0,29.73,WNW,296,1.0,6.0,92,0.07,,---,0.13,VWS V14.00,2013-04-12 14:50:00,
2013-04-12 10:55:00,68.5,66.1,29.73,NW,313,0.0,6.0,92,0.08,,---,0.14,VWS V14.00,2013-04-12 14:55:00,
2013-04-12 11:00:00,68.6,66.5,29.74,NNW,333,7.0,7.0,93,0.08,,---,0.14,VWS V14.00,2013-04-12 15:00:00,
2013-04-12 11:05:00,68.7,66.6,29.74,NNW,339,0.0,7.0,93,0.08,,---,0.14,VWS V14.00,2013-04-12 15:05:00,
2013-04-12 11:10:00,68.7,66.6,29.75,WSW,256,3.0,7.0,93,0.09,,---,0.15,VWS V14.00,2013-04-12 15:10:00,
2013-04-12 11:15:00,68.6,66.2,29.75,WNW,299,1.0,8.0,92,0.11,,---,0.17,VWS V14.00,2013-04-12 15:15:00,
2013-04-12 11:20:00,68.4,66.0,29.75,NNW,328,0.0,8.0,92,0.12,,---,0.18,VWS V14.00,2013-04-12 15:20:00,
2013-04-12 11:25:00,68.5,66.4,29.74,NNW,328,0.0,8.0,93,0.12,,---,0.18,VWS V14.00,2013-04-12 15:25:00,
2013-04-12 11:30:00,68.5,66.4,29.74,NNW,331,4.0,4.0,93,0.05,,---,0.18,VWS V14.00,2013-04-12 15:30:00,
2013-04-12 11:35:00,68.4,66.0,29.74,NW,311,0.0,6.0,92,0.05,,---,0.18,VWS V14.00,2013-04-12 15:35:00,
2013-04-12 11:40:00,68.5,66.1,29.74,NW,312,1.0,9.0,92,0.05,,---,0.18,VWS V14.00,2013-04-12 15:40:00,
2013-04-12 11:45:00,68.7,66.6,29.74,West,273,4.0,9.0,93,0.05,,---,0.18,VWS V14.00,2013-04-12 15:45:00,
2013-04-12 11:50:00,69.1,67.0,29.75,WNW,294,1.0,9.0,93,0.05,,---,0.18,VWS V14.00,2013-04-12 15:50:00,
2013-04-12 11:55:00,69.0,65.9,29.75,NE,35,1.0,9.0,90,0.05,,---,0.18,VWS V14.00,2013-04-12 15:55:00,
2013-04-12 12:00:00,68.7,65.3,29.75,NW,323,1.0,5.0,89,0.04,,---,0.18,VWS V14.00,2013-04-12 16:00:00,
2013-04-12 12:05:00,68.5,65.1,29.75,NW,311,0.0,5.0,89,0.04,,---,0.18,VWS V14.00,2013-04-12 16:05:00,
2013-04-12 12:10:00,68.5,65.1,29.75,NNW,333,1.0,7.0,89,0.04,,---,0.18,VWS V14.00,2013-04-12 16:10:00,
2013-04-12 12:15:00,68.9,65.8,29.75,NNW,332,0.0,7.0,90,0.04,,---,0.18,VWS V14.00,2013-04-12 16:15:00,
2013-04-12 12:20:00,69.3,65.6,29.75,NW,314,2.0,7.0,88,0.04,,---,0.18,VWS V14.00,2013-04-12 16:20:00,
2013-04-12 12:25:00,69.9,65.9,29.75,NW,324,5.0,8.0,87,0.04,,---,0.18,VWS V14.00,2013-04-12 16:25:00,
2013-04-12 12:30:00,70.6,65.9,29.75,North,355,1.0,11.0,85,0.00,,---,0.18,VWS V14.00,2013-04-12 16:30:00,
2013-04-12 12:35:00,71.1,65.7,29.75,West,272,0.0,11.0,83,0.00,,---,0.18,VWS V14.00,2013-04-12 16:35:00,
2013-04-12 12:40:00,71.5,65.4,29.75,WSW,240,5.0,11.0,81,0.00,,---,0.18,VWS V14.00,2013-04-12 16:40:00,
2013-04-12 12:45:00,71.9,65.0,29.75,WSW,246,6.0,11.0,79,0.00,,---,0.18,VWS V14.00,2013-04-12 16:45:00,
2013-04-12 12:50:00,72.1,64.9,29.75,SW,234,2.0,11.0,78,0.00,,---,0.18,VWS V14.00,2013-04-12 16:50:00,
2013-04-12 12:55:00,72.2,64.6,29.75,WSW,252,0.0,11.0,77,0.00,,---,0.18,VWS V14.00,2013-04-12 16:55:00,
2013-04-12 13:00:00,72.6,65.3,29.75,NNE,17,0.0,9.0,78,0.00,,---,0.18,VWS V14.00,2013-04-12 17:00:00,
2013-04-12 13:05:00,73.2,65.6,29.74,NW,319,4.0,11.0,77,0.00,,---,0.18,VWS V14.00,2013-04-12 17:05:00,
2013-04-12 13:10:00,73.7,66.4,29.74,West,265,0.0,11.0,78,0.00,,---,0.18,VWS V14.00,2013-04-12 17:10:00,
2013-04-12 13:15:00,74.1,64.9,29.75,WNW,289,1.0,11.0,73,0.00,,---,0.18,VWS V14.00,2013-04-12 17:15:00,
2013-04-12 13:20:00,73.9,64.7,29.74,WNW,284,1.0,13.0,73,0.00,,---,0.18,VWS V14.00,2013-04-12 17:20:00,
2013-04-12 13:25:00,73.8,65.4,29.74,NNW,337,1.0,13.0,75,0.00,,---,0.18,VWS V14.00,2013-04-12 17:25:00,
2013-04-12 13:30:00,74.5,65.7,29.74,NNW,330,5.0,13.0,74,0.00,,---,0.18,VWS V14.00,2013-04-12 17:30:00,
2013-04-12 13:35:00,74.8,64.0,29.73,NW,323,4.0,13.0,69,0.00,,---,0.18,VWS V14.00,2013-04-12 17:35:00,
2013-04-12 13:40:00,75.0,64.2,29.73,NNW,327,8.0,13.0,69,0.00,,---,0.18,VWS V14.00,2013-04-12 17:40:00,
2013-04-12 13:46:00,75.2,63.9,29.74,WNW,296,1.0,13.0,68,0.00,,---,0.18,VWS V14.00,2013-04-12 17:46:00,
2013-04-12 13:51:00,75.6,63.9,29.74,NNW,327,6.0,13.0,67,0.00,,---,0.18,VWS V14.00,2013-04-12 17:51:00,
2013-04-12 13:56:00,75.8,63.6,29.74,West,263,5.0,14.0,66,0.00,,---,0.18,VWS V14.00,2013-04-12 17:56:00,
2013-04-12 14:01:00,76.0,63.4,29.74,South,188,1.0,15.0,65,0.00,,---,0.18,VWS V14.00,2013-04-12 18:01:00,
2013-04-12 14:06:00,76.0,62.5,29.73,NW,321,5.0,15.0,63,0.00,,---,0.18,VWS V14.00,2013-04-12 18:06:00,
2013-04-12 14:11:00,76.1,63.0,29.74,WSW,241,7.0,15.0,64,0.00,,---,0.18,VWS V14.00,2013-04-12 18:11:00,
2013-04-12 14:17:00,76.6,62.2,29.74,WSW,248,4.0,15.0,61,0.00,,---,0.18,VWS V14.00,2013-04-12 18:17:00,
2013-04-12 14:22:00,76.8,61.4,29.74,ENE,72,7.0,15.0,59,0.00,,---,0.18,VWS V14.00,2013-04-12 18:22:00,
2013-04-12 14:28:00,76.7,61.3,29.73,West,266,1.0,8.0,59,0.00,,---,0.18,VWS V14.00,2013-04-12 18:28:00,
2013-04-12 15:26:00,78.9,58.1,29.72,North,5,7.0,13.0,49,0.00,,---,0.18,VWS V14.00,2013-04-12 19:26:00,
2013-04-12 15:31:00,79.0,57.7,29.72,WSW,243,7.0,14.0,48,0.00,,---,0.18,VWS V14.00,2013-04-12 19:31:00,
2013-04-12 15:37:00,79.2,57.2,29.72,SSW,205,2.0,14.0,47,0.00,,---,0.18,VWS V14.00,2013-04-12 19:37:00,
2013-04-12 15:41:00,79.3,56.1,29.72,NW,318,13.0,14.0,45,0.00,,---,0.18,VWS V14.00,2013-04-12 19:41:00,
2013-04-12 15:46:00,79.3,56.1,29.72,NNW,340,11.0,14.0,45,0.00,,---,0.18,VWS V14.00,2013-04-12 19:46:00,
2013-04-12 15:51:00,79.2,56.0,29.72,WSW,250,5.0,15.0,45,0.00,,---,0.18,VWS V14.00,2013-04-12 19:51:00,
2013-04-12 15:56:00,79.3,56.1,29.72,NNW,338,5.0,5.0,45,0.00,,---,0.18,VWS V14.00,2013-04-12 19:56:00,
2013-04-12 16:01:00,79.4,55.6,29.71,NW,309,1.0,12.0,44,0.00,,---,0.18,VWS V14.00,2013-04-12 20:01:00,
2013-04-12 16:06:00,79.6,55.2,29.71,WSW,249,5.0,14.0,43,0.00,,---,0.18,VWS V14.00,2013-04-12 20:06:00,
2013-04-12 16:12:00,79.5,54.4,29.71,NW,322,1.0,18.0,42,0.00,,---,0.18,VWS V14.00,2013-04-12 20:12:00,
2013-04-12 16:16:00,79.4,55.6,29.71,NNW,335,6.0,18.0,44,0.00,,---,0.18,VWS V14.00,2013-04-12 20:16:00,
2013-04-12 16:21:00,79.4,54.3,29.71,WNW,296,2.0,18.0,42,0.00,,---,0.18,VWS V14.00,2013-04-12 20:21:00,
2013-04-12 16:26:00,79.4,53.7,29.71,SW,232,4.0,18.0,41,0.00,,---,0.18,VWS V14.00,2013-04-12 20:26:00,
2013-04-12 16:31:00,79.2,53.5,29.70,WSW,247,0.0,12.0,41,0.00,,---,0.18,VWS V14.00,2013-04-12 20:31:00,
2013-04-12 16:37:00,79.1,52.7,29.70,NNW,337,2.0,12.0,40,0.00,,---,0.18,VWS V14.00,2013-04-12 20:37:00,
2013-04-12 16:42:00,79.2,52.8,29.70,NNW,335,4.0,12.0,40,0.00,,---,0.18,VWS V14.00,2013-04-12 20:42:00,
2013-04-12 16:47:00,79.4,51.6,29.70,NW,311,8.0,12.0,38,0.00,,---,0.18,VWS V14.00,2013-04-12 20:47:00,
2013-04-12 16:52:00,79.3,50.1,29.71,NW,313,2.0,14.0,36,0.00,,---,0.18,VWS V14.00,2013-04-12 20:52:00,
2013-04-12 16:57:00,79.3,50.1,29.70,WSW,252,2.0,2.0,36,0.00,,---,0.18,VWS V14.00,2013-04-12 20:57:00,
2013-04-12 17:02:00,79.3,49.3,29.71,NW,319,2.0,12.0,35,0.00,,---,0.18,VWS V14.00,2013-04-12 21:02:00,
2013-04-12 17:07:00,79.1,46.7,29.71,NNW,328,5.0,14.0,32,0.00,,---,0.18,VWS V14.00,2013-04-12 21:07:00,
2013-04-12 17:12:00,79.1,46.7,29.71,NNW,329,4.0,14.0,32,0.00,,---,0.18,VWS V14.00,2013-04-12 21:12:00,
2013-04-12 17:17:00,78.9,45.7,29.71,WNW,290,2.0,14.0,31,0.00,,---,0.18,VWS V14.00,2013-04-12 21:17:00,
2013-04-12 17:22:00,78.4,46.1,29.71,WSW,242,6.0,18.0,32,0.00,,---,0.18,VWS V14.00,2013-04-12 21:22:00,
2013-04-12 17:27:00,78.1,47.5,29.71,NW,319,2.0,6.0,34,0.00,,---,0.18,VWS V14.00,2013-04-12 21:27:00,
2013-04-12 17:32:00,78.1,47.5,29.72,SW,232,7.0,10.0,34,0.00,,---,0.18,VWS V14.00,2013-04-12 21:32:00,
2013-04-12 17:37:00,78.0,46.6,29.72,WSW,241,3.0,13.0,33,0.00,,---,0.18,VWS V14.00,2013-04-12 21:37:00,
2013-04-12 17:42:00,77.7,46.3,29.72,SW,235,7.0,13.0,33,0.00,,---,0.18,VWS V14.00,2013-04-12 21:42:00,
2013-04-12 17:47:00,77.7,46.3,29.72,NNW,328,7.0,13.0,33,0.00,,---,0.18,VWS V14.00,2013-04-12 21:47:00,
2013-04-12 17:52:00,77.7,46.3,29.73,WSW,252,2.0,13.0,33,0.00,,---,0.18,VWS V14.00,2013-04-12 21:52:00,
2013-04-12 17:57:00,77.6,47.0,29.73,WSW,244,5.0,7.0,34,0.00,,---,0.18,VWS V14.00,2013-04-12 21:57:00,
2013-04-12 18:02:00,77.5,46.2,29.74,SW,232,3.0,11.0,33,0.00,,---,0.18,VWS V14.00,2013-04-12 22:02:00,
2013-04-12 18:07:00,77.2,46.7,29.73,WSW,244,4.0,14.0,34,0.00,,---,0.18,VWS V14.00,2013-04-12 22:07:00,
2013-04-12 18:12:00,76.9,47.2,29.72,WNW,287,4.0,17.0,35,0.00,,---,0.18,VWS V14.00,2013-04-12 22:12:00,
2013-04-12 18:17:00,76.7,47.0,29.72,NNW,338,0.0,17.0,35,0.00,,---,0.18,VWS V14.00,2013-04-12 22:17:00,
2013-04-12 18:22:00,76.4,47.5,29.73,NW,313,5.0,17.0,36,0.00,,---,0.18,VWS V14.00,2013-04-12 22:22:00,
2013-04-12 18:27:00,76.1,47.2,29.73,SW,234,3.0,4.0,36,0.00,,---,0.18,VWS V14.00,2013-04-12 22:27:00,
2013-04-12 18:32:00,75.9,47.1,29.73,WNW,301,1.0,14.0,36,0.00,,---,0.18,VWS V14.00,2013-04-12 22:32:00,
2013-04-12 18:37:00,75.7,46.9,29.73,North,349,2.0,14.0,36,0.00,,---,0.18,VWS V14.00,2013-04-12 22:37:00,
2013-04-12 18:42:00,75.4,45.9,29.73,NNE,14,4.0,14.0,35,0.00,,---,0.18,VWS V14.00,2013-04-12 22:42:00,
2013-04-12 18:47:00,75.0,45.5,29.73,NNW,332,6.0,14.0,35,0.00,,---,0.18,VWS V14.00,2013-04-12 22:47:00,
2013-04-12 18:52:00,74.6,45.9,29.74,NW,313,5.0,14.0,36,0.00,,---,0.18,VWS V14.00,2013-04-12 22:52:00,
2013-04-12 18:57:00,74.2,46.3,29.74,West,281,4.0,4.0,37,0.00,,---,0.18,VWS V14.00,2013-04-12 22:57:00,
2013-04-12 19:02:00,74.0,46.1,29.74,WSW,246,4.0,7.0,37,0.00,,---,0.18,VWS V14.00,2013-04-12 23:02:00,
2013-04-12 19:07:00,73.7,46.5,29.75,WSW,240,2.0,8.0,38,0.00,,---,0.18,VWS V14.00,2013-04-12 23:07:00,
2013-04-12 19:12:00,73.5,47.0,29.75,West,261,0.0,8.0,39,0.00,,---,0.18,VWS V14.00,2013-04-12 23:12:00,
2013-04-12 19:17:00,73.3,47.5,29.75,West,272,0.0,8.0,40,0.00,,---,0.18,VWS V14.00,2013-04-12 23:17:00,
2013-04-12 19:22:00,73.0,47.3,29.75,WNW,298,0.0,8.0,40,0.00,,---,0.18,VWS V14.00,2013-04-12 23:22:00,
2013-04-12 19:27:00,72.7,47.0,29.75,West,263,0.0,3.0,40,0.00,,---,0.18,VWS V14.00,2013-04-12 23:27:00,
2013-04-12 19:32:00,72.5,46.8,29.75,West,263,0.0,3.0,40,0.00,,---,0.18,VWS V14.00,2013-04-12 23:32:00,
2013-04-12 19:37:00,72.2,47.2,29.76,West,267,2.0,3.0,41,0.00,,---,0.18,VWS V14.00,2013-04-12 23:37:00,
2013-04-12 19:42:00,71.8,47.5,29.76,West,272,0.0,4.0,42,0.00,,---,0.18,VWS V14.00,2013-04-12 23:42:00,
2013-04-12 19:47:00,71.4,47.8,29.76,West,275,1.0,4.0,43,0.00,,---,0.18,VWS V14.00,2013-04-12 23:47:00,
2013-04-12 19:52:00,71.0,48.0,29.76,West,269,0.0,4.0,44,0.00,,---,0.18,VWS V14.00,2013-04-12 23:52:00,
2013-04-12 19:57:00,70.5,47.6,29.77,NW,310,4.0,6.0,44,0.00,,---,0.18,VWS V14.00,2013-04-12 23:57:00,
2013-04-12 20:02:00,70.1,47.2,29.76,West,273,0.0,6.0,44,0.00,,---,0.18,VWS V14.00,2013-04-13 00:02:00,
2013-04-12 20:07:00,69.7,46.8,29.76,West,269,0.0,6.0,44,0.00,,---,0.18,VWS V14.00,2013-04-13 00:07:00,
2013-04-12 20:12:00,69.4,47.2,29.77,WNW,284,0.0,6.0,45,0.00,,---,0.18,VWS V14.00,2013-04-13 00:12:00,
2013-04-12 20:17:00,69.0,47.4,29.77,WNW,282,0.0,6.0,46,0.00,,---,0.18,VWS V14.00,2013-04-13 00:17:00,
2013-04-12 20:22:00,68.7,47.7,29.78,West,279,0.0,6.0,47,0.00,,---,0.18,VWS V14.00,2013-04-13 00:22:00,
2013-04-12 20:27:00,68.3,47.9,29.78,West,279,0.0,0.0,48,0.00,,---,0.18,VWS V14.00,2013-04-13 00:27:00,
2013-04-12 20:32:00,67.8,47.4,29.78,West,279,0.0,1.0,48,0.00,,---,0.18,VWS V14.00,2013-04-13 00:32:00,
2013-04-12 20:37:00,67.3,47.0,29.78,West,279,0.0,2.0,48,0.00,,---,0.18,VWS V14.00,2013-04-13 00:37:00,
2013-04-12 20:42:00,66.9,46.6,29.78,West,279,0.0,2.0,48,0.00,,---,0.18,VWS V14.00,2013-04-13 00:42:00,
2013-04-12 20:47:00,66.5,46.8,29.78,West,279,0.0,2.0,49,0.00,,---,0.18,VWS V14.00,2013-04-13 00:47:00,
2013-04-12 20:52:00,66.1,46.4,29.79,WNW,288,0.0,5.0,49,0.00,,---,0.18,VWS V14.00,2013-04-13 00:52:00,
2013-04-12 20:57:00,65.8,45.6,29.79,West,269,0.0,3.0,48,0.00,,---,0.18,VWS V14.00,2013-04-13 00:57:00,
2013-04-12 21:02:00,65.6,46.0,29.79,WNW,282,0.0,3.0,49,0.00,,---,0.18,VWS V14.00,2013-04-13 01:02:00,
2013-04-12 21:08:00,65.4,45.2,29.80,West,259,4.0,4.0,48,0.00,,---,0.18,VWS V14.00,2013-04-13 01:08:00,
2013-04-12 21:13:00,65.2,44.5,29.80,WSW,252,0.0,5.0,47,0.00,,---,0.18,VWS V14.00,2013-04-13 01:13:00,
2013-04-12 21:18:00,65.1,44.4,29.80,WSW,255,0.0,5.0,47,0.00,,---,0.18,VWS V14.00,2013-04-13 01:18:00,
2013-04-12 21:23:00,64.9,44.2,29.81,WNW,292,0.0,6.0,47,0.00,,---,0.18,VWS V14.00,2013-04-13 01:23:00,
2013-04-12 21:28:00,64.7,44.6,29.81,WNW,292,0.0,1.0,48,0.00,,---,0.18,VWS V14.00,2013-04-13 01:28:00,
2013-04-12 21:32:00,64.5,44.4,29.81,WNW,292,1.0,1.0,48,0.00,,---,0.18,VWS V14.00,2013-04-13 01:32:00,
2013-04-12 21:38:00,64.2,44.1,29.81,WNW,292,0.0,1.0,48,0.00,,---,0.18,VWS V14.00,2013-04-13 01:38:00,
2013-04-12 21:43:00,63.9,43.8,29.81,WNW,292,0.0,1.0,48,0.00,,---,0.18,VWS V14.00,2013-04-13 01:43:00,
2013-04-12 21:48:00,63.6,44.6,29.82,WNW,292,0.0,1.0,50,0.00,,---,0.18,VWS V14.00,2013-04-13 01:48:00,
2013-04-12 21:53:00,63.3,44.4,29.82,WNW,292,0.0,1.0,50,0.00,,---,0.18,VWS V14.00,2013-04-13 01:53:00,
2013-04-12 21:58:00,63.0,44.1,29.82,WNW,292,0.0,0.0,50,0.00,,---,0.18,VWS V14.00,2013-04-13 01:58:00,
2013-04-12 22:03:00,62.8,44.4,29.82,WNW,292,0.0,1.0,51,0.00,,---,0.18,VWS V14.00,2013-04-13 02:03:00,
2013-04-12 22:08:00,62.6,44.2,29.82,WNW,292,0.0,2.0,51,0.00,,---,0.18,VWS V14.00,2013-04-13 02:08:00,
2013-04-12 22:13:00,62.5,43.6,29.83,WNW,292,0.0,2.0,50,0.00,,---,0.18,VWS V14.00,2013-04-13 02:13:00,
2013-04-12 22:18:00,62.4,44.0,29.83,WNW,292,0.0,2.0,51,0.00,,---,0.18,VWS V14.00,2013-04-13 02:18:00,
2013-04-12 22:23:00,62.2,43.9,29.83,WNW,292,0.0,2.0,51,0.00,,---,0.18,VWS V14.00,2013-04-13 02:23:00,
2013-04-12 22:28:00,62.1,43.8,29.83,WNW,292,0.0,1.0,51,0.00,,---,0.18,VWS V14.00,2013-04-13 02:28:00,
2013-04-12 22:33:00,61.9,44.1,29.83,WNW,292,0.0,2.0,52,0.00,,---,0.18,VWS V14.00,2013-04-13 02:33:00,
2013-04-12 22:38:00,61.8,44.0,29.83,WNW,292,0.0,2.0,52,0.00,,---,0.18,VWS V14.00,2013-04-13 02:38:00,
2013-04-12 22:43:00,61.7,43.9,29.84,WNW,292,0.0,2.0,52,0.00,,---,0.18,VWS V14.00,2013-04-13 02:43:00,
2013-04-12 22:48:00,61.6,44.3,29.84,WNW,291,1.0,2.0,53,0.00,,---,0.18,VWS V14.00,2013-04-13 02:48:00,
2013-04-12 22:53:00,61.5,44.2,29.84,WNW,291,1.0,2.0,53,0.00,,---,0.18,VWS V14.00,2013-04-13 02:53:00,
2013-04-12 22:58:00,61.3,44.0,29.84,WNW,291,0.0,0.0,53,0.00,,---,0.18,VWS V14.00,2013-04-13 02:58:00,
2013-04-12 23:03:00,61.1,44.3,29.85,WNW,291,0.0,0.0,54,0.00,,---,0.18,VWS V14.00,2013-04-13 03:03:00,
2013-04-12 23:08:00,60.9,44.2,29.85,WNW,291,0.0,2.0,54,0.00,,---,0.18,VWS V14.00,2013-04-13 03:08:00,
2013-04-12 23:13:00,60.8,44.1,29.85,WNW,291,0.0,2.0,54,0.00,,---,0.18,VWS V14.00,2013-04-13 03:13:00,
2013-04-12 23:18:00,60.6,43.9,29.85,WNW,291,0.0,2.0,54,0.00,,---,0.18,VWS V14.00,2013-04-13 03:18:00,
2013-04-12 23:23:00,60.5,44.3,29.85,WNW,291,0.0,2.0,55,0.00,,---,0.18,VWS V14.00,2013-04-13 03:23:00,
2013-04-12 23:28:00,60.3,44.1,29.85,WNW,291,0.0,1.0,55,0.00,,---,0.18,VWS V14.00,2013-04-13 03:28:00,
2013-04-12 23:33:00,60.0,44.3,29.86,WNW,291,0.0,1.0,56,0.00,,---,0.18,VWS V14.00,2013-04-13 03:33:00,
2013-04-12 23:38:00,59.7,44.0,29.85,WNW,291,0.0,1.0,56,0.00,,---,0.18,VWS V14.00,2013-04-13 03:38:00,
2013-04-12 23:43:00,59.4,44.2,29.86,WNW,290,1.0,2.0,57,0.00,,---,0.18,VWS V14.00,2013-04-13 03:43:00,
2013-04-12 23:48:00,59.2,44.5,29.86,WNW,290,0.0,2.0,58,0.00,,---,0.18,VWS V14.00,2013-04-13 03:48:00,
2013-04-12 23:53:00,59.1,44.3,29.86,WNW,290,0.0,2.0,58,0.00,,---,0.18,VWS V14.00,2013-04-13 03:53:00,
2013-04-12 23:58:00,59.0,44.3,29.86,WNW,290,0.0,4.0,58,0.00,,---,0.00,VWS V14.00,2013-04-13 03:58:00,